QPF
0.01 0.01 0.00 0.01 0.01 0.01 0.01 0.01 0.01 0.01 0.01 0.01 0.01 0.01 0.01 0.01 0.01 0.01 0.02 0.03 0.03 0.03 0.05 0.07 0.07 0.07 0.06 0.07 0.09 0.10 0.08 0.07 0.07 0.05 0.04 0.05 0.05 0.05 0.05 0.06 0.06 0.05 0.06 0.08 0.09 0.09 0.09 0.09 0.08
0.01 0.01 0.00 0.02 0.02 0.01 0.01 0.01 0.01 0.01 0.01 0.01 0.01 0.01 0.02 0.02 0.02 0.02 0.02 0.03 0.02 0.02 0.03 0.06 0.06 0.03 0.02 0.04 0.07 0.05 0.04 0.04 0.04 0.03 0.03 0.03 0.04 0.05 0.07 0.08 0.07 0.06 0.06 0.08 0.08 0.08 0.09 0.09 0.09
0.02 0.02 0.01 0.01 0.01 0.01 0.01 0.01 0.01 0.01 0.01 0.01 0.01 0.02 0.04 0.03 0.03 0.03 0.03 0.02 0.02 0.02 0.03 0.05 0.06 0.03 0.03 0.04 0.06 0.05 0.04 0.03 0.02 0.02 0.03 0.03 0.04 0.05 0.06 0.07 0.09 0.08 0.07 0.11 0.12 0.12 0.11 0.10 0.10
0.01 0.01 0.01 0.01 0.01 0.01 0.02 0.01 0.01 0.01 0.01 0.01 0.01 0.03 0.04 0.03 0.03 0.03 0.02 0.02 0.01 0.02 0.02 0.03 0.04 0.04 0.03 0.04 0.04 0.04 0.04 0.03 0.03 0.02 0.03 0.03 0.03 0.02 0.03 0.05 0.06 0.07 0.08 0.10 0.14 0.16 0.13 0.12 0.11
0.01 0.01 0.01 0.01 0.02 0.01 0.01 0.02 0.01 0.02 0.02 0.01 0.01 0.03 0.05 0.05 0.04 0.03 0.02 0.02 0.01 0.02 0.02 0.03 0.04 0.04 0.03 0.03 0.02 0.02 0.03 0.03 0.03 0.04 0.03 0.02 0.02 0.02 0.03 0.04 0.03 0.05 0.10 0.12 0.14 0.16 0.15 0.13 0.11
0.01 0.01 0.01 0.01 0.01 0.01 0.03 0.04 0.04 0.04 0.03 0.02 0.01 0.02 0.06 0.05 0.04 0.04 0.03 0.02 0.02 0.02 0.03 0.03 0.04 0.03 0.02 0.01 0.01 0.02 0.03 0.02 0.03 0.03 0.02 0.02 0.02 0.02 0.03 0.03 0.03 0.03 0.07 0.17 0.15 0.14 0.13 0.11 0.10
0.00 0.00 0.00 0.01 0.00 0.02 0.03 0.02 0.03 0.05 0.04 0.03 0.02 0.03 0.05 0.04 0.03 0.02 0.02 0.04 0.05 0.04 0.03 0.04 0.04 0.02 0.01 0.01 0.01 0.02 0.02 0.03 0.03 0.02 0.01 0.01 0.01 0.02 0.03 0.03 0.02 0.01 0.06 0.13 0.10 0.09 0.08 0.06 0.07
0.00 0.00 0.00 0.00 0.01 0.01 0.01 0.01 0.01 0.02 0.04 0.03 0.02 0.04 0.05 0.05 0.04 0.04 0.05 0.07 0.05 0.03 0.03 0.03 0.03 0.02 0.02 0.02 0.02 0.02 0.02 0.02 0.02 0.01 0.01 0.01 0.01 0.01 0.02 0.02 0.02 0.02 0.05 0.08 0.05 0.05 0.05 0.05 0.06
0.00 0.00 0.00 0.00 0.01 0.01 0.01 0.02 0.02 0.02 0.03 0.03 0.03 0.05 0.07 0.06 0.05 0.05 0.06 0.05 0.03 0.02 0.02 0.02 0.02 0.03 0.04 0.05 0.05 0.04 0.03 0.02 0.01 0.01 0.01 0.01 0.01 0.01 0.02 0.02 0.02 0.03 0.04 0.04 0.03 0.03 0.04 0.04 0.05
0.00 0.00 0.00 0.00 0.00 0.01 0.01 0.01 0.01 0.01 0.03 0.02 0.04 0.05 0.07 0.07 0.06 0.04 0.04 0.03 0.02 0.02 0.02 0.02 0.03 0.05 0.08 0.08 0.06 0.05 0.02 0.01 0.01 0.00 0.01 0.01 0.01 0.02 0.02 0.03 0.02 0.03 0.03 0.03 0.03 0.03 0.03 0.04 0.05
0.00 0.00 0.00 0.00 0.00 0.01 0.01 0.01 0.01 0.01 0.02 0.02 0.02 0.03 0.04 0.04 0.04 0.03 0.02 0.02 0.01 0.02 0.02 0.02 0.05 0.08 0.09 0.07 0.08 0.06 0.02 0.01 0.01 0.00 0.00 0.01 0.01 0.02 0.02 0.03 0.03 0.03 0.03 0.03 0.03 0.03 0.03 0.03 0.03
0.01 0.00 0.00 0.01 0.01 0.01 0.01 0.01 0.01 0.01 0.02 0.02 0.01 0.01 0.02 0.02 0.03 0.02 0.02 0.01 0.01 0.02 0.02 0.02 0.06 0.07 0.08 0.08 0.10 0.07 0.03 0.01 0.00 0.00 0.00 0.01 0.01 0.02 0.02 0.04 0.03 0.02 0.02 0.01 0.01 0.02 0.03 0.03 0.03
0.02 0.01 0.01 0.01 0.01 0.01 0.01 0.02 0.01 0.02 0.02 0.01 0.01 0.01 0.01 0.01 0.01 0.01 0.01 0.01 0.01 0.01 0.02 0.02 0.06 0.06 0.07 0.09 0.11 0.07 0.03 0.01 0.00 0.00 0.00 0.01 0.01 0.02 0.03 0.06 0.05 0.04 0.03 0.03 0.03 0.03 0.04 0.03 0.03
0.02 0.01 0.01 0.01 0.01 0.01 0.01 0.01 0.01 0.02 0.02 0.01 0.01 0.01 0.01 0.01 0.01 0.01 0.01 0.01 0.01 0.01 0.02 0.03 0.08 0.06 0.06 0.08 0.09 0.06 0.03 0.01 0.00 0.00 0.00 0.01 0.01 0.02 0.02 0.04 0.06 0.05 0.04 0.05 0.05 0.04 0.04 0.04 0.04
0.02 0.02 0.02 0.02 0.01 0.01 0.01 0.02 0.02 0.01 0.01 0.01 0.01 0.02 0.02 0.02 0.01 0.01 0.01 0.02 0.02 0.02 0.03 0.04 0.07 0.05 0.05 0.05 0.05 0.04 0.02 0.00 0.00 0.00 0.00 0.01 0.01 0.01 0.01 0.02 0.04 0.05 0.03 0.03 0.04 0.04 0.04 0.03 0.03
0.02 0.03 0.04 0.03 0.01 0.01 0.01 0.02 0.03 0.01 0.01 0.01 0.01 0.02 0.03 0.04 0.03 0.02 0.03 0.03 0.03 0.03 0.04 0.05 0.07 0.04 0.04 0.04 0.03 0.02 0.01 0.00 0.00 0.00 0.00 0.00 0.00 0.00 0.00 0.01 0.02 0.02 0.02 0.02 0.03 0.04 0.03 0.03 0.02
0.02 0.03 0.03 0.03 0.02 0.01 0.01 0.02 0.02 0.01 0.01 0.01 0.01 0.02 0.04 0.04 0.03 0.02 0.03 0.04 0.05 0.05 0.04 0.05 0.05 0.04 0.03 0.03 0.02 0.01 0.00 0.00 0.00 0.00 0.00 0.00 0.00 0.00 0.00 0.00 0.01 0.01 0.01 0.01 0.02 0.03 0.04 0.02 0.02
0.02 0.02 0.02 0.02 0.03 0.01 0.01 0.01 0.01 0.00 0.00 0.01 0.01 0.01 0.02 0.02 0.02 0.02 0.02 0.03 0.04 0.05 0.04 0.06 0.04 0.04 0.04 0.03 0.02 0.01 0.00 0.00 0.00 0.00 0.00 0.00 0.00 0.00 0.00 0.00 0.01 0.01 0.01 0.00 0.01 0.01 0.02 0.03 0.02
0.01 0.01 0.01 0.02 0.02 0.02 0.01 0.01 0.01 0.00 0.00 0.01 0.01 0.01 0.01 0.02 0.02 0.02 0.02 0.03 0.04 0.05 0.05 0.05 0.05 0.05 0.05 0.03 0.02 0.01 0.01 0.00 0.00 0.00 0.00 0.00 0.00 0.00 0.00 0.00 0.00 0.00 0.01 0.01 0.01 0.01 0.02 0.02 0.02
0.01 0.01 0.01 0.01 0.01 0.01 0.01 0.00 0.00 0.00 0.00 0.00 0.01 0.01 0.01 0.02 0.02 0.02 0.02 0.02 0.03 0.03 0.03 0.03 0.05 0.06 0.05 0.04 0.03 0.01 0.01 0.00 0.00 0.00 0.00 0.00 0.00 0.00 0.00 0.00 0.00 0.00 0.01 0.01 0.01 0.01 0.02 0.02 0.01
0.00 0.00 0.01 0.01 0.02 0.01 0.01 0.00 0.00 0.00 0.00 0.00 0.00 0.01 0.01 0.01 0.01 0.01 0.02 0.03 0.03 0.02 0.02 0.03 0.03 0.04 0.04 0.04 0.04 0.02 0.01 0.01 0.00 0.00 0.00 0.00 0.00 0.00 0.00 0.00 0.00 0.00 0.01 0.01 0.01 0.01 0.02 0.02 0.02
0.01 0.01 0.01 0.01 0.02 0.01 0.00 0.00 0.00 0.00 0.00 0.00 0.00 0.00 0.00 0.00 0.00 0.01 0.02 0.03 0.02 0.02 0.02 0.03 0.05 0.04 0.04 0.04 0.04 0.03 0.02 0.01 0.01 0.00 0.00 0.01 0.00 0.00 0.01 0.01 0.00 0.00 0.01 0.01 0.02 0.02 0.02 0.02 0.01
0.01 0.01 0.01 0.01 0.01 0.00 0.00 0.00 0.00 0.00 0.00 0.00 0.00 0.00 0.00 0.00 0.00 0.00 0.01 0.01 0.01 0.01 0.02 0.03 0.07 0.08 0.04 0.03 0.03 0.04 0.03 0.02 0.01 0.00 0.00 0.00 0.00 0.00 0.01 0.01 0.00 0.01 0.01 0.01 0.01 0.02 0.02 0.02 0.02
0.01 0.01 0.01 0.02 0.01 0.01 0.00 0.00 0.00 0.00 0.00 0.00 0.00 0.00 0.00 0.00 0.00 0.00 0.01 0.01 0.01 0.01 0.01 0.01 0.04 0.08 0.05 0.03 0.03 0.04 0.04 0.04 0.02 0.01 0.01 0.00 0.00 0.01 0.01 0.01 0.02 0.02 0.02 0.02 0.01 0.02 0.03 0.03 0.02
0.01 0.02 0.02 0.01 0.01 0.01 0.00 0.00 0.00 0.00 0.00 0.00 0.00 0.00 0.00 0.00 0.00 0.00 0.00 0.01 0.01 0.01 0.01 0.01 0.02 0.05 0.06 0.05 0.04 0.04 0.05 0.06 0.06 0.04 0.03 0.02 0.01 0.01 0.02 0.02 0.03 0.03 0.03 0.03 0.02 0.02 0.02 0.02 0.02
0.01 0.01 0.01 0.01 0.01 0.00 0.00 0.00 0.00 0.00 0.00 0.00 0.00 0.00 0.00 0.00 0.00 0.00 0.00 0.01 0.01 0.01 0.01 0.01 0.01 0.04 0.07 0.06 0.06 0.05 0.05 0.06 0.07 0.07 0.08 0.07 0.05 0.03 0.03 0.04 0.05 0.04 0.05 0.05 0.04 0.02 0.02 0.02 0.01
0.01 0.01 0.01 0.01 0.00 0.00 0.00 0.00 0.00 0.00 0.00 0.00 0.01 0.01 0.00 0.00 0.00 0.00 0.01 0.01 0.01 0.01 0.01 0.01 0.01 0.02 0.06 0.08 0.08 0.05 0.05 0.06 0.05 0.04 0.04 0.06 0.07 0.06 0.05 0.06 0.07 0.06 0.06 0.06 0.04 0.02 0.02 0.03 0.03
0.00 0.01 0.01 0.01 0.01 0.00 0.00 0.00 0.00 0.00 0.01 0.00 0.01 0.01 0.00 0.00 0.00 0.00 0.01 0.01 0.01 0.01 0.02 0.02 0.02 0.02 0.03 0.07 0.09 0.08 0.05 0.06 0.06 0.05 0.03 0.03 0.03 0.04 0.04 0.04 0.06 0.07 0.06 0.06 0.05 0.03 0.04 0.05 0.04
0.01 0.01 0.02 0.01 0.01 0.00 0.00 0.00 0.00 0.01 0.01 0.01 0.01 0.01 0.00 0.00 0.00 0.00 0.00 0.01 0.01 0.01 0.02 0.02 0.02 0.02 0.03 0.04 0.06 0.08 0.07 0.07 0.06 0.07 0.06 0.03 0.03 0.05 0.05 0.04 0.05 0.05 0.04 0.04 0.04 0.04 0.04 0.05 0.06
0.00 0.01 0.02 0.02 0.01 0.00 0.00 0.00 0.00 0.00 0.01 0.01 0.01 0.01 0.00 0.00 0.00 0.00 0.01 0.01 0.02 0.01 0.02 0.02 0.02 0.03 0.03 0.03 0.03 0.05 0.07 0.08 0.07 0.08 0.10 0.07 0.04 0.05 0.05 0.04 0.04 0.04 0.03 0.02 0.02 0.03 0.04 0.04 0.04
MSLP
1004.01 1004.69 1006.00 1007.86 1010.08 1012.41 1014.60 1016.41 1017.69 1018.38 1018.58 1018.43 1018.15 1017.88 1017.76 1017.82 1018.02 1018.25 1018.40 1018.37 1018.11 1017.65 1017.04 1016.38 1015.74 1015.20 1014.77 1014.41 1014.08 1013.73 1013.31 1012.82 1012.28 1011.74 1011.24 1010.82 1010.49 1010.23 1010.01 1009.79 1009.51 1009.17 1008.77 1008.33 1007.86 1007.39 1006.92 1006.44 1005.95
1005.04 1006.03 1007.59 1009.59 1011.81 1014.03 1015.99 1017.51 1018.47 1018.88 1018.86 1018.60 1018.27 1018.04 1017.99 1018.14 1018.41 1018.68 1018.84 1018.79 1018.51 1018.03 1017.42 1016.77 1016.19 1015.71 1015.34 1015.04 1014.75 1014.42 1014.00 1013.50 1012.94 1012.38 1011.86 1011.42 1011.07 1010.80 1010.57 1010.33 1010.06 1009.73 1009.35 1008.93 1008.50 1008.06 1007.63 1007.19 1006.72
1006.20 1007.47 1009.21 1011.26 1013.41 1015.42 1017.08 1018.25 1018.89 1019.04 1018.86 1018.52 1018.22 1018.08 1018.15 1018.41 1018.76 1019.06 1019.22 1019.14 1018.82 1018.31 1017.69 1017.08 1016.54 1016.13 1015.84 1015.60 1015.37 1015.08 1014.68 1014.19 1013.63 1013.06 1012.53 1012.07 1011.71 1011.42 1011.17 1010.92 1010.64 1010.32 1009.96 1009.56 1009.17 1008.76 1008.36 1007.94 1007.50
1007.42 1008.92 1010.77 1012.79 1014.79 1016.53 1017.87 1018.71 1019.05 1018.99 1018.70 1018.36 1018.13 1018.11 1018.30 1018.66 1019.07 1019.39 1019.51 1019.38 1019.01 1018.47 1017.85 1017.26 1016.78 1016.44 1016.22 1016.06 1015.88 1015.64 1015.28 1014.80 1014.26 1013.71 1013.18 1012.73 1012.36 1012.05 1011.78 1011.52 1011.23 1010.91 1010.57 1010.20 1009.83 1009.46 1009.08 1008.68 1008.24
1008.63 1010.29 1012.19 1014.13 1015.93 1017.40 1018.42 1018.96 1019.07 1018.87 1018.53 1018.24 1018.11 1018.21 1018.52 1018.95 1019.38 1019.67 1019.72 1019.52 1019.09 1018.51 1017.90 1017.34 1016.92 1016.65 1016.50 1016.40 1016.28 1016.07 1015.74 1015.30 1014.79 1014.26 1013.76 1013.33 1012.97 1012.66 1012.39 1012.11 1011.82 1011.50 1011.16 1010.82 1010.47 1010.13 1009.77 1009.38 1008.95
1009.80 1011.54 1013.42 1015.24 1016.82 1018.04 1018.80 1019.12 1019.07 1018.80 1018.49 1018.28 1018.26 1018.46 1018.84 1019.30 1019.69 1019.91 1019.88 1019.59 1019.09 1018.49 1017.88 1017.37 1017.01 1016.81 1016.71 1016.65 1016.55 1016.37 1016.07 1015.66 1015.18 1014.69 1014.23 1013.84 1013.50 1013.20 1012.93 1012.65 1012.35 1012.03 1011.70 1011.37 1011.05 1010.72 1010.39 1010.02 1009.59
1010.88 1012.64 1014.45 1016.12 1017.51 1018.51 1019.08 1019.25 1019.14 1018.89 1018.65 1018.54 1018.62 1018.90 1019.31 1019.72 1020.03 1020.14 1019.99 1019.61 1019.07 1018.46 1017.88 1017.42 1017.12 1016.97 1016.91 1016.87 1016.77 1016.58 1016.28 1015.89 1015.44 1014.99 1014.58 1014.23 1013.92 1013.65 1013.39 1013.10 1012.80 1012.47 1012.14 1011.82 1011.52 1011.22 1010.91 1010.57 1010.16
1011.89 1013.61 1015.30 1016.82 1018.03 1018.86 1019.30 1019.43 1019.33 1019.14 1019.01 1019.01 1019.18 1019.49 1019.87 1020.20 1020.39 1020.36 1020.11 1019.65 1019.08 1018.48 1017.96 1017.56 1017.32 1017.21 1017.16 1017.11 1016.99 1016.77 1016.45 1016.05 1015.62 1015.20 1014.84 1014.52 1014.25 1014.00 1013.75 1013.46 1013.15 1012.82 1012.49 1012.18 1011.89 1011.61 1011.34 1011.03 1010.66
1012.83 1014.46 1016.02 1017.38 1018.43 1019.14 1019.53 1019.65 1019.62 1019.55 1019.53 1019.64 1019.86 1020.16 1020.47 1020.69 1020.75 1020.59 1020.23 1019.73 1019.15 1018.60 1018.14 1017.82 1017.64 1017.55 1017.50 1017.42 1017.25 1016.98 1016.62 1016.20 1015.77 1015.38 1015.04 1014.76 1014.51 1014.28 1014.03 1013.74 1013.41 1013.07 1012.74 1012.43 1012.16 1011.91 1011.67 1011.41 1011.10
1013.74 1015.26 1016.67 1017.86 1018.79 1019.41 1019.78 1019.94 1020.00 1020.05 1020.15 1020.32 1020.57 1020.84 1021.05 1021.14 1021.06 1020.80 1020.37 1019.85 1019.31 1018.82 1018.45 1018.20 1018.07 1018.00 1017.93 1017.80 1017.57 1017.25 1016.84 1016.39 1015.96 1015.57 1015.24 1014.98 1014.74 1014.51 1014.25 1013.95 1013.62 1013.26 1012.93 1012.62 1012.36 1012.15 1011.94 1011.74 1011.50
1014.66 1016.05 1017.30 1018.34 1019.14 1019.71 1020.07 1020.28 1020.43 1020.58 1020.76 1020.98 1021.22 1021.42 1021.53 1021.50 1021.31 1020.96 1020.51 1020.00 1019.52 1019.12 1018.83 1018.66 1018.57 1018.51 1018.41 1018.23 1017.95 1017.57 1017.12 1016.65 1016.21 1015.82 1015.50 1015.23 1014.99 1014.75 1014.47 1014.15 1013.80 1013.44 1013.10 1012.80 1012.56 1012.36 1012.20 1012.04 1011.87
1015.62 1016.87 1017.96 1018.86 1019.55 1020.05 1020.40 1020.66 1020.88 1021.09 1021.31 1021.53 1021.73 1021.85 1021.86 1021.73 1021.46 1021.08 1020.63 1020.17 1019.77 1019.46 1019.25 1019.14 1019.08 1019.01 1018.89 1018.67 1018.35 1017.93 1017.47 1016.99 1016.55 1016.17 1015.85 1015.57 1015.31 1015.04 1014.73 1014.39 1014.02 1013.65 1013.31 1013.02 1012.79 1012.62 1012.48 1012.36 1012.25
1016.63 1017.74 1018.68 1019.44 1020.03 1020.47 1020.80 1021.07 1021.31 1021.54 1021.76 1021.95 1022.08 1022.12 1022.04 1021.84 1021.53 1021.14 1020.73 1020.34 1020.02 1019.79 1019.66 1019.59 1019.53 1019.46 1019.31 1019.07 1018.73 1018.32 1017.87 1017.42 1017.00 1016.63 1016.31 1016.02 1015.73 1015.42 1015.08 1014.71 1014.32 1013.95 1013.61 1013.33 1013.11 1012.95 1012.83 1012.73 1012.64
1017.67 1018.65 1019.45 1020.08 1020.57 1020.95 1021.24 1021.50 1021.72 1021.93 1022.11 1022.23 1022.28 1022.24 1022.09 1021.85 1021.53 1021.18 1020.82 1020.51 1020.27 1020.11 1020.01 1019.95 1019.89 1019.79 1019.63 1019.39 1019.07 1018.70 1018.30 1017.91 1017.55 1017.21 1016.90 1016.59 1016.27 1015.92 1015.55 1015.15 1014.75 1014.37 1014.04 1013.77 1013.56 1013.40 1013.28 1013.18 1013.08
1018.69 1019.55 1020.23 1020.75 1021.15 1021.47 1021.72 1021.93 1022.11 1022.26 1022.37 1022.41 1022.37 1022.26 1022.07 1021.81 1021.52 1021.22 1020.94 1020.71 1020.53 1020.40 1020.32 1020.24 1020.16 1020.04 1019.87 1019.64 1019.37 1019.08 1018.77 1018.46 1018.17 1017.88 1017.58 1017.27 1016.92 1016.54 1016.13 1015.72 1015.31 1014.94 1014.62 1014.36 1014.15 1013.98 1013.84 1013.71 1013.59
1019.63 1020.37 1020.95 1021.39 1021.72 1021.98 1022.19 1022.35 1022.48 1022.55 1022.57 1022.52 1022.41 1022.23 1022.02 1021.78 1021.53 1021.30 1021.10 1020.94 1020.80 1020.69 1020.59 1020.49 1020.37 1020.22 1020.05 1019.86 1019.66 1019.46 1019.26 1019.06 1018.85 1018.61 1018.34 1018.03 1017.66 1017.25 1016.83 1016.40 1016.00 1015.64 1015.34 1015.09 1014.87 1014.69 1014.51 1014.33 1014.16
1020.41 1021.05 1021.54 1021.92 1022.21 1022.43 1022.61 1022.73 1022.79 1022.79 1022.72 1022.59 1022.41 1022.20 1021.99 1021.78 1021.60 1021.45 1021.33 1021.22 1021.12 1021.01 1020.88 1020.74 1020.57 1020.40 1020.24 1020.09 1019.97 1019.87 1019.78 1019.68 1019.56 1019.38 1019.14 1018.83 1018.45 1018.03 1017.59 1017.17 1016.78 1016.45 1016.16 1015.92 1015.71 1015.50 1015.28 1015.06 1014.83
1020.98 1021.52 1021.95 1022.29 1022.56 1022.77 1022.93 1023.02 1023.03 1022.96 1022.82 1022.63 1022.40 1022.17 1021.98 1021.82 1021.72 1021.65 1021.61 1021.56 1021.48 1021.37 1021.21 1021.02 1020.82 1020.63 1020.47 1020.37 1020.32 1020.32 1020.33 1020.33 1020.27 1020.14 1019.93 1019.62 1019.24 1018.82 1018.39 1017.98 1017.62 1017.31 1017.05 1016.83 1016.61 1016.39 1016.14 1015.87 1015.60
1021.32 1021.78 1022.16 1022.47 1022.74 1022.96 1023.11 1023.18 1023.16 1023.03 1022.84 1022.60 1022.35 1022.13 1021.97 1021.88 1021.86 1021.88 1021.91 1021.92 1021.87 1021.75 1021.57 1021.35 1021.12 1020.92 1020.79 1020.73 1020.74 1020.81 1020.90 1020.96 1020.96 1020.86 1020.66 1020.37 1020.00 1019.59 1019.18 1018.80 1018.48 1018.20 1017.97 1017.76 1017.55 1017.32 1017.06 1016.76 1016.46
1021.47 1021.84 1022.18 1022.48 1022.75 1022.97 1023.13 1023.18 1023.13 1022.98 1022.75 1022.48 1022.23 1022.03 1021.92 1021.91 1021.97 1022.09 1022.20 1022.26 1022.25 1022.14 1021.96 1021.73 1021.50 1021.30 1021.18 1021.16 1021.21 1021.33 1021.47 1021.57 1021.59 1021.51 1021.32 1021.03 1020.68 1020.30 1019.93 1019.59 1019.31 1019.08 1018.89 1018.70 1018.50 1018.27 1018.00 1017.71 1017.40
1021.48 1021.78 1022.07 1022.35 1022.62 1022.85 1022.99 1023.03 1022.95 1022.77 1022.51 1022.24 1022.00 1021.84 1021.79 1021.86 1022.02 1022.22 1022.41 1022.54 1022.57 1022.50 1022.34 1022.12 1021.90 1021.73 1021.64 1021.64 1021.72 1021.87 1022.01 1022.12 1022.15 1022.07 1021.88 1021.61 1021.28 1020.94 1020.61 1020.33 1020.11 1019.92 1019.76 1019.60 1019.42 1019.20 1018.95 1018.67 1018.38
1021.44 1021.68 1021.93 1022.18 1022.42 1022.62 1022.73 1022.74 1022.62 1022.40 1022.13 1021.86 1021.64 1021.53 1021.55 1021.70 1021.95 1022.24 1022.51 1022.71 1022.80 1022.78 1022.67 1022.49 1022.31 1022.17 1022.11 1022.14 1022.24 1022.38 1022.53 1022.62 1022.63 1022.54 1022.35 1022.09 1021.80 1021.50 1021.24 1021.02 1020.85 1020.71 1020.59 1020.45 1020.29 1020.09 1019.86 1019.62 1019.37
1021.46 1021.63 1021.83 1022.03 1022.22 1022.36 1022.41 1022.35 1022.18 1021.92 1021.63 1021.36 1021.17 1021.11 1021.21 1021.44 1021.77 1022.15 1022.50 1022.77 1022.93 1022.97 1022.92 1022.80 1022.67 1022.59 1022.56 1022.62 1022.73 1022.87 1022.99 1023.06 1023.04 1022.93 1022.75 1022.51 1022.25 1022.01 1021.81 1021.65 1021.54 1021.45 1021.35 1021.24 1021.09 1020.91 1020.71 1020.50 1020.30
1021.56 1021.69 1021.82 1021.96 1022.06 1022.11 1022.07 1021.92 1021.68 1021.37 1021.05 1020.78 1020.63 1020.63 1020.79 1021.10 1021.51 1021.96 1022.39 1022.73 1022.96 1023.07 1023.08 1023.04 1022.98 1022.95 1022.98 1023.06 1023.18 1023.31 1023.41 1023.45 1023.40 1023.29 1023.10 1022.89 1022.67 1022.49 1022.35 1022.25 1022.18 1022.12 1022.05 1021.95 1021.81 1021.64 1021.46 1021.29 1021.13
1021.76 1021.85 1021.92 1021.97 1021.98 1021.91 1021.75 1021.50 1021.16 1020.79 1020.45 1020.19 1020.07 1020.13 1020.35 1020.74 1021.22 1021.73 1022.22 1022.62 1022.91 1023.09 1023.18 1023.20 1023.22 1023.25 1023.33 1023.44 1023.57 1023.70 1023.78 1023.80 1023.74 1023.61 1023.44 1023.25 1023.08 1022.94 1022.85 1022.80 1022.76 1022.73 1022.67 1022.57 1022.43 1022.27 1022.10 1021.95 1021.83
1022.01 1022.07 1022.09 1022.05 1021.95 1021.76 1021.47 1021.09 1020.67 1020.24 1019.88 1019.63 1019.55 1019.66 1019.95 1020.39 1020.93 1021.50 1022.03 1022.48 1022.83 1023.06 1023.21 1023.31 1023.39 1023.49 1023.61 1023.76 1023.91 1024.04 1024.11 1024.12 1024.05 1023.93 1023.77 1023.60 1023.47 1023.37 1023.32 1023.30 1023.29 1023.26 1023.20 1023.10 1022.96 1022.79 1022.62 1022.48 1022.38
1022.20 1022.26 1022.23 1022.12 1021.92 1021.61 1021.20 1020.72 1020.22 1019.74 1019.36 1019.13 1019.09 1019.25 1019.60 1020.10 1020.68 1021.29 1021.85 1022.34 1022.72 1023.00 1023.20 1023.35 1023.50 1023.65 1023.82 1024.01 1024.18 1024.32 1024.40 1024.41 1024.34 1024.23 1024.09 1023.95 1023.84 1023.77 1023.74 1023.74 1023.74 1023.71 1023.65 1023.53 1023.38 1023.20 1023.03 1022.88 1022.78
1022.26 1022.32 1022.27 1022.11 1021.82 1021.41 1020.91 1020.35 1019.79 1019.29 1018.91 1018.71 1018.71 1018.92 1019.32 1019.85 1020.47 1021.10 1021.68 1022.18 1022.58 1022.89 1023.14 1023.34 1023.53 1023.74 1023.95 1024.17 1024.37 1024.53 1024.63 1024.65 1024.60 1024.50 1024.38 1024.26 1024.17 1024.12 1024.10 1024.10 1024.10 1024.07 1024.00 1023.88 1023.71 1023.52 1023.33 1023.18 1023.06
1022.09 1022.17 1022.11 1021.91 1021.57 1021.10 1020.55 1019.94 1019.36 1018.86 1018.50 1018.33 1018.38 1018.63 1019.07 1019.63 1020.26 1020.90 1021.48 1021.99 1022.40 1022.74 1023.01 1023.25 1023.48 1023.73 1023.98 1024.24 1024.47 1024.66 1024.78 1024.82 1024.80 1024.72 1024.62 1024.52 1024.45 1024.40 1024.39 1024.39 1024.38 1024.34 1024.26 1024.13 1023.96 1023.76 1023.57 1023.40 1023.26
1021.68 1021.77 1021.71 1021.49 1021.13 1020.64 1020.07 1019.46 1018.89 1018.41 1018.10 1017.97 1018.06 1018.35 1018.80 1019.38 1020.01 1020.64 1021.22 1021.72 1022.15 1022.49 1022.79 1023.06 1023.33 1023.62 1023.91 1024.20 1024.46 1024.68 1024.83 1024.91 1024.92 1024.88 1024.80 1024.72 1024.66 1024.62 1024.60 1024.59 1024.58 1024.53 1024.44 1024.31 1024.14 1023.95 1023.75 1023.56 1023.40
Thickness
5791 5793 5795 5787 5773 5757 5743 5744 5750 5749 5750 5754 5757 5755 5751 5747 5744 5737 5749 5757 5758 5759 5759 5759 5758 5759 5760 5761 5762 5762 5763 5764 5764 5765 5765 5766 5766 5767 5767 5767 5768 5768 5767 5766 5766 5766 5765 5765 5764
5793 5793 5788 5778 5760 5743 5737 5745 5745 5748 5752 5756 5756 5755 5751 5747 5750 5749 5751 5754 5757 5758 5758 5757 5756 5756 5757 5758 5758 5759 5759 5760 5760 5761 5761 5762 5763 5763 5763 5764 5764 5764 5763 5763 5763 5763 5762 5761 5761
5791 5790 5778 5766 5751 5742 5737 5744 5746 5750 5755 5755 5752 5753 5749 5745 5748 5749 5751 5754 5755 5755 5755 5753 5753 5753 5754 5754 5755 5755 5756 5756 5757 5757 5757 5758 5759 5759 5760 5760 5760 5760 5760 5760 5759 5759 5758 5757 5757
5787 5780 5772 5756 5740 5742 5745 5747 5749 5749 5751 5754 5752 5747 5747 5748 5749 5751 5751 5753 5753 5752 5752 5750 5749 5750 5750 5751 5751 5751 5752 5752 5753 5753 5753 5754 5754 5755 5755 5756 5756 5756 5755 5755 5755 5754 5753 5753 5753
5783 5770 5753 5741 5738 5742 5749 5751 5751 5748 5747 5749 5750 5743 5741 5746 5751 5751 5750 5750 5750 5750 5750 5748 5746 5746 5747 5747 5748 5748 5748 5748 5748 5748 5749 5749 5749 5750 5750 5751 5751 5751 5751 5751 5750 5750 5749 5748 5748
5768 5763 5743 5733 5734 5740 5746 5751 5750 5747 5746 5747 5746 5742 5738 5745 5746 5747 5748 5748 5748 5748 5747 5746 5743 5743 5743 5744 5744 5744 5744 5744 5744 5744 5744 5745 5745 5745 5746 5746 5747 5747 5747 5746 5745 5744 5744 5743 5744
5760 5752 5739 5735 5732 5735 5742 5750 5748 5745 5743 5744 5747 5739 5737 5741 5744 5746 5746 5746 5746 5745 5745 5745 5744 5742 5741 5740 5740 5740 5740 5740 5740 5740 5740 5740 5741 5741 5741 5742 5742 5743 5742 5741 5740 5739 5739 5739 5739
5763 5751 5737 5735 5731 5732 5742 5746 5747 5745 5742 5747 5748 5739 5735 5740 5744 5744 5743 5744 5743 5743 5743 5743 5742 5741 5741 5739 5736 5736 5736 5736 5736 5736 5736 5737 5737 5737 5737 5738 5738 5738 5737 5736 5735 5734 5734 5734 5734
5762 5744 5732 5733 5732 5733 5742 5741 5743 5747 5744 5743 5744 5743 5743 5743 5743 5741 5739 5740 5739 5740 5741 5740 5740 5739 5738 5737 5734 5734 5733 5733 5733 5733 5733 5734 5735 5735 5734 5733 5732 5732 5732 5731 5730 5730 5730 5730 5730
5752 5736 5733 5740 5742 5739 5739 5740 5741 5741 5737 5737 5738 5740 5741 5740 5739 5737 5736 5736 5736 5736 5737 5738 5737 5736 5735 5734 5733 5732 5732 5731 5731 5731 5731 5731 5731 5730 5729 5727 5727 5727 5727 5727 5726 5726 5727 5728 5729
5745 5735 5737 5739 5742 5741 5737 5737 5741 5737 5731 5736 5735 5736 5737 5737 5737 5736 5736 5735 5735 5735 5734 5735 5734 5733 5732 5730 5729 5728 5728 5727 5727 5727 5727 5727 5727 5727 5726 5726 5725 5724 5724 5724 5723 5725 5725 5725 5724
5738 5735 5737 5737 5738 5737 5736 5735 5734 5734 5734 5741 5740 5739 5737 5735 5735 5734 5734 5733 5733 5732 5732 5731 5731 5730 5729 5727 5726 5725 5724 5724 5724 5723 5723 5723 5723 5723 5722 5722 5721 5721 5720 5719 5720 5720 5721 5721 5720
5731 5729 5732 5733 5733 5734 5733 5731 5731 5731 5736 5739 5738 5735 5734 5734 5734 5734 5734 5733 5732 5729 5729 5728 5727 5726 5726 5724 5722 5722 5721 5720 5720 5718 5719 5718 5718 5718 5718 5718 5716 5716 5716 5715 5715 5716 5715 5715 5714
5729 5728 5727 5728 5728 5729 5726 5727 5728 5728 5734 5734 5732 5731 5732 5731 5731 5732 5731 5729 5728 5727 5726 5724 5724 5723 5722 5721 5720 5718 5717 5715 5715 5714 5714 5714 5713 5713 5713 5713 5711 5711 5711 5711 5711 5711 5709 5709 5708
5729 5722 5719 5722 5724 5725 5725 5719 5722 5729 5731 5728 5728 5729 5728 5729 5729 5728 5728 5727 5726 5725 5724 5721 5720 5719 5718 5718 5716 5714 5713 5712 5711 5710 5710 5710 5709 5708 5708 5707 5706 5705 5705 5706 5705 5705 5704 5703 5702
5723 5716 5708 5713 5719 5721 5718 5708 5719 5727 5726 5724 5725 5726 5725 5725 5726 5727 5726 5725 5724 5723 5721 5718 5716 5715 5714 5713 5712 5711 5710 5708 5707 5706 5705 5705 5704 5703 5702 5701 5700 5699 5700 5700 5699 5698 5698 5697 5696
5711 5705 5702 5706 5714 5715 5713 5708 5717 5723 5722 5720 5722 5723 5723 5723 5723 5724 5724 5723 5721 5720 5718 5716 5714 5712 5710 5709 5708 5706 5705 5704 5703 5701 5700 5699 5699 5698 5697 5695 5694 5694 5694 5693 5693 5692 5691 5690 5689
5701 5702 5701 5701 5708 5709 5706 5709 5715 5719 5719 5719 5720 5721 5721 5721 5721 5722 5721 5720 5718 5717 5715 5713 5711 5709 5707 5705 5704 5702 5700 5699 5698 5697 5695 5694 5693 5692 5691 5690 5689 5688 5688 5687 5687 5685 5684 5683 5683
5708 5703 5699 5701 5707 5704 5704 5707 5712 5716 5716 5716 5718 5719 5719 5720 5721 5720 5719 5716 5715 5713 5712 5709 5707 5705 5703 5701 5699 5697 5695 5694 5693 5691 5690 5689 5688 5687 5686 5685 5683 5682 5682 5680 5680 5679 5679 5678 5678
5704 5699 5698 5700 5704 5702 5703 5705 5713 5715 5713 5715 5716 5717 5718 5718 5718 5717 5715 5714 5712 5710 5708 5706 5704 5702 5700 5697 5696 5694 5692 5690 5688 5686 5685 5684 5683 5681 5680 5679 5678 5676 5675 5674 5673 5672 5672 5672 5672
5700 5699 5698 5696 5698 5702 5700 5701 5709 5713 5714 5713 5714 5715 5717 5716 5715 5715 5714 5712 5709 5707 5705 5703 5701 5700 5697 5695 5692 5689 5687 5685 5683 5681 5679 5678 5677 5676 5674 5673 5672 5671 5670 5668 5667 5666 5665 5666 5666
5693 5701 5698 5693 5691 5692 5695 5690 5706 5710 5709 5708 5710 5712 5713 5713 5713 5712 5710 5709 5707 5705 5704 5702 5699 5697 5694 5691 5688 5685 5682 5680 5678 5676 5674 5673 5672 5670 5668 5667 5666 5666 5664 5662 5661 5660 5660 5659 5659
5696 5698 5695 5693 5692 5690 5694 5689 5703 5708 5704 5706 5708 5709 5710 5711 5710 5709 5708 5706 5705 5704 5701 5699 5696 5693 5690 5688 5684 5682 5679 5676 5673 5671 5669 5668 5666 5665 5663 5662 5661 5660 5659 5657 5656 5654 5654 5654 5653
5694 5692 5690 5690 5689 5679 5690 5686 5692 5704 5703 5705 5706 5707 5706 5707 5706 5705 5705 5703 5701 5699 5697 5694 5692 5688 5685 5683 5681 5678 5675 5671 5667 5665 5663 5662 5661 5659 5658 5656 5655 5654 5653 5651 5650 5649 5648 5648 5647
5690 5683 5674 5672 5673 5680 5688 5683 5690 5703 5704 5703 5702 5703 5702 5702 5701 5700 5698 5697 5695 5693 5691 5690 5687 5684 5681 5679 5677 5675 5672 5668 5665 5661 5659 5657 5656 5654 5653 5651 5650 5649 5647 5645 5644 5644 5643 5643 5642
5686 5685 5672 5665 5671 5680 5681 5681 5695 5698 5698 5698 5698 5697 5696 5696 5696 5694 5693 5691 5690 5689 5687 5686 5684 5681 5678 5675 5674 5671 5668 5664 5662 5658 5656 5653 5651 5649 5647 5646 5644 5643 5641 5640 5638 5638 5638 5638 5637
5681 5681 5687 5678 5676 5670 5679 5686 5691 5694 5692 5691 5691 5691 5690 5689 5688 5687 5687 5686 5685 5684 5683 5682 5680 5678 5675 5672 5669 5667 5664 5660 5657 5654 5652 5649 5647 5644 5642 5641 5639 5637 5636 5634 5633 5633 5633 5633 5632
5685 5684 5677 5671 5662 5663 5672 5677 5682 5686 5687 5687 5686 5685 5684 5683 5682 5682 5681 5680 5680 5679 5678 5678 5676 5674 5670 5667 5664 5661 5658 5655 5652 5650 5647 5644 5642 5639 5638 5637 5635 5633 5632 5630 5628 5628 5627 5627 5626
5674 5673 5673 5673 5671 5663 5662 5674 5688 5686 5686 5683 5683 5682 5680 5678 5677 5676 5675 5675 5674 5673 5672 5671 5670 5668 5665 5662 5659 5656 5653 5650 5647 5644 5642 5639 5637 5634 5633 5632 5630 5628 5627 5625 5623 5623 5622 5622 5622
5676 5675 5672 5663 5664 5666 5663 5671 5686 5684 5683 5680 5678 5677 5676 5673 5672 5671 5670 5669 5667 5666 5666 5665 5664 5662 5659 5656 5653 5650 5647 5644 5642 5639 5637 5634 5631 5629 5628 5626 5625 5623 5622 5620 5619 5618 5617 5616 5615